Johnson County (6A4)
Johnson County, TN
Field Elevation: 2240
Lat: 36°25.07N  Long: 81°49.51W
CTAF/Unicom Freq: 122.7000
   
    
Weather Advisories
3/2/2015 07:18 Z
Altimeter 30.23" Hg
Wind 310° @ 0 KT
Gusts --
Visibility 1 SM
Ceiling SCT003 OVC007
Temperature 5° C (41° F)
Dewpoint 4° C (39° F)
Relative Humidity 97%
Density Altitude --
Condensation Altitude --
  Wind and Runways
Indicated Runway = 24
History
 
 
More Info
All DigiWx sites map
 
Johnson County Airport FBO
 
Airport IQ 5010
(M01) General Dewitt Spain Airport
(3M3) Collegedale Muni
 
about DigiWx
 
FAA Disclaimer: The data displayed is for advisory purposes only and is not to be used for flight planning or operations. For official data, please call (not available) to hear the current automated AWOS voice message.
  METAR 6A4 020718Z AUTO 31000KT 1SM SCT003 OVC007 05/04 A3023